Location: Newark
(44.2003°N, 3.2583°E)
Time: 11:35:37
(UTC+00:00)

SR - Pass Details

Date: 23 October 2019
Orbit: 574 x 882 km, 66.7° (Epoch: 17 November)

Event Time Altitude Azimuth Distance (km) Brightness Sun altitude
Rises 22:31:27 0° 252° (WSW) 3,119 - -54.9°
Reaches altitude 10° 22:34:10 10° 267° (W) 2,258 - -55.1°
Maximum altitude 22:38:19 24° 320° (NW) 1,600 - -55.4°
Drops below altitude 10° 22:42:45 10° 12° (NNE) 2,425 - -55.7°
Sets 22:45:48 0° 27° (NNE) 3,407 - -55.9°
